Location: Terra Rouge Observatory
(46.0000°N, 62.7500°W)
Time: 20:00:37
(UTC-03:00)

NOSS 3-1 (A) - Visible Passes

Search period start: 24 April 2017 00:00
Search period end: 04 May 2017 00:00
Orbit: 833 x 1379 km, 63.4° (Epoch: 19 April)

Date Brightness Start Highest point End Pass type
(mag) Time Alt. Az. Time Alt. Az. Time Alt. Az.
24 Apr 3.9 01:10:33 52° WNW 01:11:21 56° NW 01:17:58 10° NE visible
24 Apr 5.6 02:59:02 10° WNW 03:03:53 22° NNW 03:09:14 10° NNE visible
24 Apr 6.0 04:52:38 10° NW 04:57:34 20° N 05:02:55 10° NE visible
24 Apr 5.2 22:39:06 15° ENE 22:39:06 15° ENE 22:40:49 10° ENE visible
25 Apr 3.4 00:26:28 81° WNW 00:26:31 81° NW 00:33:12 10° NE visible
25 Apr 5.3 02:13:51 12° WNW 02:18:32 26° NNW 02:24:16 10° NNE visible
25 Apr 6.0 04:07:25 10° NW 04:12:03 19° N 04:17:03 10° NE visible
25 Apr 3.4 23:42:15 65° E 23:42:15 65° E 23:48:21 10° NE visible
26 Apr 4.9 01:29:37 19° W 01:33:18 34° NNW 01:39:27 10° NNE visible
26 Apr 6.0 03:21:57 10° NW 03:26:31 19° N 03:31:27 10° NE visible
26 Apr 6.0 05:14:25 10° NNW 05:20:08 25° NNE 05:26:24 10° ENE visible
26 Apr 3.8 22:57:51 41° ESE 22:57:51 41° ESE 23:03:21 10° NE visible
27 Apr 4.4 00:45:12 27° W 00:48:12 45° NW 00:54:41 10° NNE visible
27 Apr 5.9 02:36:19 10° WNW 02:41:01 20° NNW 02:46:09 10° NE visible
27 Apr 6.1 04:29:31 10° NNW 04:34:42 21° NNE 04:40:22 10° ENE visible
27 Apr 4.3 22:13:10 26° ESE 22:13:10 26° ESE 22:18:06 10° ENE visible
28 Apr 3.7 00:00:29 33° WSW 00:03:16 64° NW 00:09:55 10° NE visible
28 Apr 5.6 01:50:37 10° WNW 01:55:36 24° NNW 02:01:06 10° NNE visible
28 Apr 6.1 03:44:26 10° NW 03:49:13 19° N 03:54:24 10° NE visible
28 Apr 4.8 21:28:02 15° ESE 21:28:47 15° ESE 21:32:13 10° ENE visible
28 Apr 3.3 23:15:18 29° SW 23:18:29 86° SE 23:25:07 10° NE visible
29 Apr 5.3 01:04:58 10° W 01:10:17 29° NNW 01:16:11 10° NNE visible
29 Apr 6.1 02:59:07 10° NW 03:03:42 19° N 03:08:38 10° NE visible
29 Apr 6.0 04:51:09 10° NNW 04:57:12 28° NNE 05:03:52 10° E visible
29 Apr 3.4 22:28:55 14° SSW 22:33:53 56° ESE 22:40:14 10° NE visible
30 Apr 4.8 00:19:30 10° WSW 00:25:06 37° NW 00:31:24 10° NNE visible
30 Apr 6.1 02:13:35 10° NW 02:18:10 19° N 02:23:10 10° NE visible
30 Apr 6.1 04:06:20 10° NNW 04:11:50 23° NNE 04:17:51 10° ENE visible
30 Apr 3.9 21:44:15 10° S 21:49:26 35° ESE 21:55:09 10° NE visible
30 Apr 4.2 23:34:16 10° WSW 23:40:04 52° NW 23:46:38 10° NE visible
01 May 5.9 01:27:54 10° WNW 01:32:42 21° NNW 01:37:58 10° NNE visible
01 May 6.2 03:21:22 10° NW 03:26:23 20° NNE 03:31:50 10° ENE visible
01 May 5.4 05:12:32 10° NNW 05:19:24 42° NE 05:27:00 10° ESE visible
01 May 4.5 21:00:52 10° SSE 21:05:09 21° ESE 21:09:43 10° ENE visible
01 May 3.6 22:49:19 10° SW 22:55:11 75° NW 23:01:52 10° NE visible
02 May 5.6 00:42:13 10° WNW 00:47:19 25° NNW 00:52:58 10° NNE visible
02 May 6.2 02:36:11 10° NW 02:40:52 19° N 02:45:56 10° NE visible
02 May 5.8 04:27:51 10° NNW 04:34:13 32° NNE 04:41:16 10° E visible
02 May 3.3 22:04:41 10° SSW 22:10:28 74° SE 22:17:03 10° NE visible
02 May 5.2 23:56:38 10° W 00:02:03 32° NNW 00:08:08 10° NNE visible
03 May 6.2 01:50:48 10° NW 01:55:21 19° N 02:00:17 10° NE visible
03 May 6.1 03:43:05 10° NNW 03:48:56 26° NNE 03:55:20 10° E visible
03 May 3.6 21:20:26 10° S 21:25:56 47° ESE 21:32:05 10° NE visible
03 May 4.7 23:11:14 10° WSW 23:16:55 42° NW 23:23:21 10° NNE visible
